TimePDT,TemperatureF,Dew PointF,Humidity,Sea Level PressureIn,VisibilityMPH,Wind Direction,Wind SpeedMPH,Gust SpeedMPH,PrecipitationIn,Events,Conditions,WindDirDegrees,DateUTC
12:56 AM,41.0,28.9,62,30.19,10.0,NNW,5.8,-,N/A,,Clear,330,2013-05-20 07:56:00
1:56 AM,39.0,28.9,67,30.19,10.0,West,9.2,-,N/A,,Clear,260,2013-05-20 08:56:00
2:56 AM,36.0,28.0,73,30.20,10.0,WNW,6.9,-,N/A,,Clear,290,2013-05-20 09:56:00
3:56 AM,35.1,27.0,72,30.22,10.0,Calm,Calm,-,N/A,,Clear,0,2013-05-20 10:56:00
4:56 AM,30.0,24.1,79,30.24,10.0,Calm,Calm,-,N/A,,Clear,0,2013-05-20 11:56:00
5:56 AM,30.0,26.1,85,30.27,10.0,SE,4.6,-,N/A,,Clear,140,2013-05-20 12:56:00
6:56 AM,42.1,30.9,65,30.24,10.0,SSE,5.8,-,N/A,,Clear,160,2013-05-20 13:56:00
7:56 AM,48.9,33.1,54,30.22,10.0,Calm,Calm,-,N/A,,Clear,0,2013-05-20 14:56:00
8:56 AM,54.0,34.0,47,30.20,10.0,Calm,Calm,-,N/A,,Clear,0,2013-05-20 15:56:00
9:56 AM,59.0,30.0,33,30.19,10.0,Variable,3.5,-,N/A,,Clear,0,2013-05-20 16:56:00
10:56 AM,61.0,30.0,31,30.18,10.0,Variable,3.5,-,N/A,,Clear,0,2013-05-20 17:56:00
11:56 AM,64.9,30.0,27,30.17,10.0,Variable,4.6,-,N/A,,Clear,0,2013-05-20 18:56:00
12:56 PM,66.9,30.9,26,30.14,10.0,Variable,3.5,-,N/A,,Clear,0,2013-05-20 19:56:00
1:56 PM,70.0,28.9,22,30.11,10.0,Variable,5.8,-,N/A,,Clear,0,2013-05-20 20:56:00
3:56 PM,72.0,25.0,17,30.06,10.0,Variable,3.5,-,N/A,,Clear,0,2013-05-20 22:56:00
4:56 PM,72.0,24.1,17,30.05,10.0,Calm,Calm,-,N/A,,Clear,0,2013-05-20 23:56:00
5:56 PM,72.0,21.0,15,30.03,10.0,NW,4.6,-,N/A,,Clear,320,2013-05-21 00:56:00
6:56 PM,72.0,14.0,11,29.99,10.0,West,5.8,-,N/A,,Clear,280,2013-05-21 01:56:00
7:56 PM,64.9,14.0,14,29.97,10.0,SW,3.5,-,N/A,,Clear,230,2013-05-21 02:56:00
8:56 PM,-9999,-9999,N/A,-9999,-9999.0,North,-9999.0,-,N/A,,Unknown,0,2013-05-21 03:56:00
9:56 PM,48.0,17.1,29,29.98,10.0,Calm,Calm,-,N/A,,Clear,0,2013-05-21 04:56:00